Preview of NWS' New Version of Forecast
This preview is not operational and should not be used for support decisions.

Regional Weather Roundup (RWR)

Issued by National Weather Service (NWS)

                            
000
ASUS44 KJAN 171310
RWRMS 

MISSISSIPPI HOURLY WEATHER ROUNDUP
NATIONAL WEATHER SERVICE JACKSON MS
700 AM CST SUN FEB 17 2019

NOTE: "FAIR: INDICATES FEW OR NO CLOUDS BELOW 12,000 FEET WITH NO
SIGNIFICANT WEATHER AND/OR OBSTRUCTIONS TO VISIBILITY.

MSZ001>002-007>008-010>013-018>021-025>028-034>036-171400-
NORTHWEST MISSISSIPPI
  
CITY           SKY/WX    TMP DP  RH WIND       PRES   REMARKS
BATESVILLE     DRIZZLE   45  45 100 NW6       29.76R                  
CLARKSDALE     FOG       45  45 100 NW5       29.78R VSB 3/4          
CLEVELAND      LGT RAIN  44  44 100 NW10      29.78R                  
GREENWOOD      CLOUDY    57  56  96 S12       29.75R                  
GREENVILLE     RAIN      46  44  93 NW9       29.76R                  
OLIVE BRANCH   FOG       39  39 100 NW6       29.76R VSB 1/2 WCI  35  
OXFORD         LGT RAIN  46  46 100 CALM      29.76R VSB 1/2          
TUNICA           N/A     41  39  93 NW6       29.80R FOG              
WINONA         CLOUDY    51  51 100 S3        29.77R FOG              
$$

MSZ003>006-009-014>017-022>024-029>033-037>039-171400-
NORTHEAST MISSISSIPPI
  
CITY           SKY/WX    TMP DP  RH WIND       PRES   REMARKS
ABERDEEN       CLOUDY    50  50 100 S7        29.78R FOG              
COLUMBUS AFB   CLOUDY    52  50  93 S7        29.77R                  
CORINTH        FOG       46  46 100 CALM      29.73F VSB 1/4          
GOLDN TRIANGLE CLOUDY    51  50  96 S14       29.79R FOG              
STARKVILLE     CLOUDY    50  48  93 S7        29.80R                  
TUPELO         CLOUDY    49  47  93 S9        29.75S FOG              
$$

MSZ040-058-171400-
CENTRAL MISSISSIPPI
  
CITY           SKY/WX    TMP DP  RH WIND       PRES   REMARKS
JACKSON INTL   CLOUDY    61  59  93 CALM      29.79R                  
JACKSON HAWKNS LGT RAIN  64  63  96 S5        29.78R FOG              
MADISON        CLOUDY    61  61 100 CALM      29.78R                  
MERIDIAN KEY   CLOUDY    57  52  83 SW7       29.78R HAZE             
MERIDIAN NAS   FOG       55  54  96 SE3       29.79S VSB 1/4          
RAYMOND        CLOUDY    64  64 100 CALM      29.77R                  
VICKSBURG VKS  CLOUDY    61  61 100 CALM      29.77R FOG              
$$

MSZ059>079-171400-
SOUTH MISSISSIPPI
  
CITY           SKY/WX    TMP DP  RH WIND       PRES   REMARKS
HATTIESBURG    CLOUDY    67  64  90 S6        29.79S                  
LAUREL         CLOUDY    61  61 100 SE3       29.78S                  
MCCOMB         CLOUDY    67  63  87 S12       29.75R                  
NATCHEZ        CLOUDY    66  63  90 NW3       29.77R FOG              
PINE BELT      CLOUDY    65  64  97 S6        29.79R                  
$$

MSZ080>082-171400-
COASTAL MISSISSIPPI
  
CITY           SKY/WX    TMP DP  RH WIND       PRES   REMARKS
BAY ST LOUIS   FOG       64  64 100 CALM      29.82  VSB 1/2          
BILOXI         FOG       64  64 100 S5        29.81S VSB 1/8          
PASCAGOULA     CLOUDY    70  66  87 S7        29.82R                  
GULFPORT       FOG       64  63  96 S6        29.81R VSB 1/4          
$$

LAZ007>009-015>016-023>026-171400-
NORTHEAST LOUISIANA
  
CITY           SKY/WX    TMP DP  RH WIND       PRES   REMARKS
BASTROP        CLOUDY    45  45  99 CALM      29.79R FOG              
TALLULAH/VBURG CLOUDY    56  52  86 NW5       29.77R                  
VIDALIA        CLOUDY    63  61  95 W3        29.76R                  
$$